LiveATC.Net - Listen to live air traffic control over the Internet!
Airport/ARTCC Code
Frequency Search
(e.g., 124.400, 128.75)
Site-wide search
 


Browse Feeds
Top 50 Feeds
Coverage Map
Bad Weather Areas

LiveATC FAQ
Offer LiveATC feed
Contact LiveATC.net
Press Inquiries

LiveATC on iPhone
LiveATC on Android

Windows Phone
Windows 8/10

LiveATC Mobile
(Mobile browser)

ATC Audio Archives
Interesting Recordings

LiveATC Forums

Home Page
About LiveATC.net
Make a Donation
Terms of Use
Privacy Policy

Canadian Air Freqs

AIRMETs/SIGMETs

FAA Airport Status
Nat'l Airspace Status
Arrival Demand Charts


Server Software By:
Icecast.org
Liquidsoap

Select an area of interest:
U.S. Feeds: Class B Airports | Class C Airports | Class D/Other Airports | ARTCC (Centers)
International Feeds: Canada | Europe | Oceania | Asia | South America | North/Central America | Africa
Misc Feeds: HF Feeds
Search by ICAO/IATA airport code:   (e.g., kbos, kjfk, lax, eham, etc.)


Currently Available Live Feeds: 2581
Status Updated: Mon Aug 03 2020 14:24:38 UTC


NOTICE

Unauthorized use prohibited. See LiveATC.net Terms of Service

South America Airport Feeds

 

SABE Gnd/Twr/App (Archives)
Buenos Aires, Argentina

Feed Status: UP
Listen in your browser - HTML5 player(in browser, HTML5)
Click here to listen with your own player(launches your MP3 player)

SABE 031300Z 11010KT 9000 FEW005 BKN130 14/13 Q1024 NOSIG

SABE Flight Activity (Flightaware)

Listeners: 2 out of 1404 total

Aerolineas Argentinas Ops: 131.950
Aerolineas Argentinas Ops: 131.100
Aeroparque Ground: 121.900
Aeroparque Tower: 120.600
Aeroparque Tower: 118.250
Aeroparque Tower: 128.850
Aeroparque Tower: 118.850
Aeroparque Tower: 129.300
Air to Air: 123.450
Baires: 125.900
Baires: 125.300
Baires: 124.900
Cordoba South: 126.500
Ezeiza Ground: 121.750
Ezeiza North: 133.350
Ezeiza North: 124.500
Ezeiza North: 125.600
Ezeiza North: 135.500
Ezeiza South: 124.100
Ezeiza South: 125.200
LAN Ops: 131.700

SANT Tower/Apps (Archives)
Tucuman, Argentina

Feed Status: UP
Listen in your browser - HTML5 player(in browser, HTML5)
Click here to listen with your own player(launches your MP3 player)

SANT 031300Z 32008KT 6000 NSC 19/09 Q1019

SANT Flight Activity (Flightaware)

Listeners: 1 out of 1404 total

Aeroclub Tucuman: 119.000
Aerolineas Argentinas SOC Salta: 131.100
Aerolineas Argentinas SOC Tucuman: 131.950
Air To Air: 123.450
Andes Lineas Aereas: 132.000
Campo Arenal: 130.950
Catamarca Tower: 118.150
Copa Airlines: 129.400
Cordoba Centro Norte: 125.100
Cordoba Centro Sur: 126.500
Emergency/Guard: 121.500
Lan Argentina Operaciones: 131.700
Lan Peru: 131.300
Salta Tower: 128.850
Santiago del Estero Tower: 118.700
Taca Peru: 126.450
Termas de Rio Hondo: 118.200
Termas de Rio Hondo: 119.850
Tucuman Ground: 121.750
Tucuman Ground: 121.750
Tucuman Tower: 118.350
Tucuman Tower: 119.500

SASA Twr/App (Archives)
Salta, Argentina

Feed Status: UP
Listen in your browser - HTML5 player(in browser, HTML5)
Click here to listen with your own player(launches your MP3 player)

SASA 031400Z 09003KT CAVOK 21/09 Q1023

SASA Flight Activity (Flightaware)

Listeners: 1 out of 1404 total

Cordoba Approach (North): 125.100
Salta Approach: 124.600
Salta Tower: 126.000
Salta Tower/Ground: 128.850

SAZN Tower (Archives)
Neuquen, Argentina

Feed Status: UP
Listen in your browser - HTML5 player(in browser, HTML5)
Click here to listen with your own player(launches your MP3 player)

SAZN 031300Z 14008KT CAVOK 08/02 Q1015

SAZN Flight Activity (Flightaware)

Listeners: 1 out of 1404 total

Neuquen Tower/Approach: 119.800

SAZS Gnd/Twr/App (Archives)
Rio Negro, Argentina

Feed Status: UP
Listen in your browser - HTML5 player(in browser, HTML5)
Click here to listen with your own player(launches your MP3 player)

SAZS 031300Z VRB02KT 9999 FEW030 BKN100 00/M01 Q1013

SAZS Flight Activity (Flightaware)

Listeners: 1 out of 1404 total

Bariloche Twr/App: 119.100
Comodoro Rivadavia Control: 125.500
Ezeiza South: 125.200

SBBR Approach
Brasilia, Brazil

Feed Status: DOWN
Offline since: 2020-07-23 22:49:39 UTC

SBBR 031400Z 08014KT 9999 BKN040 22/11 Q1029

Brasilia Approach: 120.650
Brasilia Approach: 129.150
Brasilia Approach: 129.600
Brasilia Approach (Final): 119.200
Brasilia Departure: 119.500
Brasilia Departure: 119.700

SBBR Ground (Archives)
Brasilia, Brazil

Feed Status: UP
Listen in your browser - HTML5 player(in browser, HTML5)
Click here to listen with your own player(launches your MP3 player)

SBBR 031400Z 08014KT 9999 BKN040 22/11 Q1029

SBBR Flight Activity (Flightaware)

Listeners: 2 out of 1404 total

Brasilia Ground: 121.950
Brasilia Ground: 121.800

SBBR Tower
Brasilia, Brazil

Feed Status: DOWN
Offline since: 2020-08-03 11:47:22 UTC

SBBR 031400Z 08014KT 9999 BKN040 22/11 Q1029

Brasilia Tower: 118.100
Brasilia Tower: 181.750
Brasilia Tower: 118.450

SBBV Approach (Archives)
Boa Vista, Brazil

Feed Status: UP
Listen in your browser - HTML5 player(in browser, HTML5)
Click here to listen with your own player(launches your MP3 player)

SBBV 031400Z 13003KT 9999 SCT015 BKN080 30/22 Q1017

SBBV Flight Activity (Flightaware)

Listeners: 3 out of 1404 total

Boa Vista Approach: 120.100

SBBV Tower (Archives)
Boa Vista, Brazil

Feed Status: UP
Listen in your browser - HTML5 player(in browser, HTML5)
Click here to listen with your own player(launches your MP3 player)

SBBV 031400Z 13003KT 9999 SCT015 BKN080 30/22 Q1017

SBBV Flight Activity (Flightaware)

Listeners: 3 out of 1404 total

Boa Vista Tower: 118.100

SBCT Gnd/Twr/App (Archives)
Curitiba, Brazil

Feed Status: UP
Listen in your browser - HTML5 player(in browser, HTML5)
Click here to listen with your own player(launches your MP3 player)

SBCT 031338Z 02003KT 290V090 5000 BR BKN003 11/11 Q1031

SBCT Flight Activity (Flightaware)

Listeners: 2 out of 1404 total

Curitiba Approach: 119.950
Curitiba Ground: 121.900
Curitiba Tower: 118.150
Curitiba Tower: 118.900

SBDN Twr/App (Archives)
Presidente Prudente/Sao Paulo, Brazil

Feed Status: UP
Listen in your browser - HTML5 player(in browser, HTML5)
Click here to listen with your own player(launches your MP3 player)

SBDN 030200Z 13014KT CAVOK 19/10 Q1025

SBDN Flight Activity (Flightaware)

Listeners: 4 out of 1404 total

Air-to-Air: 123.450
Curitiba Sector 13: 133.595
Prudente Approach: 118.450
Prudente Tower: 125.450

SBEG Tower/App (Archives)
Manaus, Brazil

Feed Status: UP
Listen in your browser - HTML5 player(in browser, HTML5)
Click here to listen with your own player(launches your MP3 player)

SBEG 031400Z 05003KT CAVOK 32/22 Q1017

SBEG Flight Activity (Flightaware)

Listeners: 2 out of 1404 total

Emergency/Guard: 121.500
Manaus Approach : 119.250
Manaus Approach: 120.400
Manaus Approach: 119.700
Manaus Tower: 118.300

SBFI Twr/App/Ctr/Misc (Archives)
Foz do Iguacu, Brazil

Feed Status: UP
Listen in your browser - HTML5 player(in browser, HTML5)
Click here to listen with your own player(launches your MP3 player)

SBFI 031400Z 12008KT CAVOK 21/12 Q1026

SBFI Flight Activity (Flightaware)

Listeners: 2 out of 1404 total

Asuncion Center (Paraguay): 126.900
Asuncion Center (Paraguay): 128.400
Curitiba Center: 127.200
Curitiba Center: 125.800
Emergency/Guard: 121.500
Foz do Iguacu Approach/Departure: 120.300
Foz do Iguacu Approach/Departure: 119.150
Foz do Iguacu Tower: 118.800
Guarani Approach (Paraguay): 119.300
Puerto Iguazu - Cataratas Tower (Argentina) : 120.700
Resistencia Center (Argentina): 124.300
UNICOM: 123.450

SBFZ ACC/Misc
Fortaleza, Brazil

Feed Status: DOWN
Offline since: 2020-08-02 16:32:40 UTC

SBFZ 031400Z 15013KT 9999 FEW030 30/19 Q1017

:
Ait to Air: 123.450
SBAC: 131.250
SBJE: 131.050
SBJU: 131.750
SBMS: 125.800
SBPB: 126.600
SBRF ACC: 133.500
SBRF ACC: 135.250
SBRF ACC: 126.350
SBRF ACC: 125.150

SBFZ Twr/App/Center (Archives)
Fortaleza, Brazil

Feed Status: UP
Listen in your browser - HTML5 player(in browser, HTML5)
Click here to listen with your own player(launches your MP3 player)

SBFZ 031400Z 15013KT 9999 FEW030 30/19 Q1017

SBFZ Flight Activity (Flightaware)

Listeners: 7 out of 1404 total

ACC-RE (Fortaleza Sector): 125.150
ACC-RE (Fortaleza Sector): 126.350
ACC-RE (Fortaleza Sector): 135.250
Fortaleza Approach: 133.000
Fortaleza Tower: 129.000

SBGO Gnd/Twr/App (Archives)
Goiania, Brazil

Feed Status: UP
Listen in your browser - HTML5 player(in browser, HTML5)
Click here to listen with your own player(launches your MP3 player)

SBGO 031400Z 08015KT 9999 FEW040 24/10 Q1027

SBGO Flight Activity (Flightaware)

Listeners: 3 out of 1404 total

Anapolis Approach: 119.150
Anapolis Approach: 120.550
Anapolis Approach: 133.000
Anapolis Approach: 129.450
Emergency/Guard: 121.500
Goiania Ground: 121.700
Goiania Tower: 118.700
Goiania Tower: 121.050

SBJP Twr/Control/Airlines
Joao Pessoa, Brazil

Feed Status: DOWN
Offline since: 2020-07-06 17:26:40 UTC

SBJP 031400Z 13016KT 9999 SCT030 28/21 Q1020

AZUL: 130.900
GOL: 131.225
Joao Pessoa Tower: 118.300
Recife Control: 119.500
TAM: 130.500

SBJU Tower/Center (Archives)
Juazeiro do Norte, Brazil

Feed Status: UP
Listen in your browser - HTML5 player(in browser, HTML5)
Click here to listen with your own player(launches your MP3 player)

SBJU 031300Z 16014KT 9999 BKN020 27/17 Q1024

SBJU Flight Activity (Flightaware)

Listeners: 0 out of 1404 total

Pilot-to-Pilot: 123.450
Radio Juazeiro: 131.750
Recife Center: 135.250
Recife Center: 125.150

SBKP Approach (Archives)
Campinas, Brazil

Feed Status: UP
Listen in your browser - HTML5 player(in browser, HTML5)
Click here to listen with your own player(launches your MP3 player)

SBKP 031400Z VRB02KT CAVOK 21/09 Q1030

SBKP Flight Activity (Flightaware)

Listeners: 2 out of 1404 total

Campinas Approach: 132.100
Campinas Approach: 135.750

SBKP Tower #1 (Archives)
Campinas, Brazil

Feed Status: UP
Listen in your browser - HTML5 player(in browser, HTML5)
Click here to listen with your own player(launches your MP3 player)

SBKP 031400Z VRB02KT CAVOK 21/09 Q1030

SBKP Flight Activity (Flightaware)

Listeners: 5 out of 1404 total

Campinas Tower: 118.250

SBKP Tower #2 (Archives)
Campinas, Brazil

Feed Status: UP
Listen in your browser - HTML5 player(in browser, HTML5)
Click here to listen with your own player(launches your MP3 player)

SBKP 031400Z VRB02KT CAVOK 21/09 Q1030

SBKP Flight Activity (Flightaware)

Listeners: 0 out of 1404 total

Campinas Tower: 118.250

SBLO Gnd/Twr/App (Archives)
Londrina, Brazil

Feed Status: UP
Listen in your browser - HTML5 player(in browser, HTML5)
Click here to listen with your own player(launches your MP3 player)

SBLO 031400Z 11004KT CAVOK 21/13 Q1029

SBLO Flight Activity (Flightaware)

Listeners: 1 out of 1404 total

Londrina Approach: 129.700
Londrina Ground: 119.550
Londrina Tower: 118.400

SBMG Twr/App/Misc
Maringa, Brazil

Feed Status: DOWN
Offline since: 2020-04-11 19:37:23 UTC

SBMG 031300Z 15002KT CAVOK 20/13 Q1027

Air to Air: 123.450
Londrina Approach: 129.700
Maringa Tower: 118.750

SBMK RDO/Center (Archives)
Montes Claros, Brazil

Feed Status: UP
Listen in your browser - HTML5 player(in browser, HTML5)
Click here to listen with your own player(launches your MP3 player)

SBMK Flight Activity (Flightaware)

Listeners: 2 out of 1404 total

Brasilia Center (Sector 15): 127.300
Montes Claros RDO: 131.700

SBMQ Tower/App/Center (Archives)
Macapa, Brazil

Feed Status: UP
Listen in your browser - HTML5 player(in browser, HTML5)
Click here to listen with your own player(launches your MP3 player)

SBMQ 031400Z 06004KT 9999 SCT020 30/25 Q1017

SBMQ Flight Activity (Flightaware)

Listeners: 1 out of 1404 total

Amazonico Center: 123.950
Amazonico Center: 128.000
Macapa Approach: 119.000
Macapa Tower: 118.000

SBNF Tower
Navegantes, Brazil

Feed Status: DOWN
Offline since: 2020-08-03 11:00:05 UTC

SBNF 031400Z 18003KT 9999 SCT012 BKN015 21/17 Q1029

Navegantes Tower: 118.200

SBPL RDO (Archives)
Petrolina, Brazil

Feed Status: UP
Listen in your browser - HTML5 player(in browser, HTML5)
Click here to listen with your own player(launches your MP3 player)

SBPL 031300Z 15018KT 9999 BKN025 25/17 Q1023

SBPL Flight Activity (Flightaware)

Listeners: 2 out of 1404 total

Petrolina RDO: 125.700

SBRF App 129.60 (Archives)
Recife, Brazil

Feed Status: UP
Listen in your browser - HTML5 player(in browser, HTML5)
Click here to listen with your own player(launches your MP3 player)

SBRF 031300Z 15015KT 9999 BKN030 28/20 Q1020

SBRF Flight Activity (Flightaware)

Listeners: 8 out of 1404 total

Recife Approach: 129.600

SBRF Gol Ops (Archives)
Recife, Brazil

Feed Status: UP
Listen in your browser - HTML5 player(in browser, HTML5)
Click here to listen with your own player(launches your MP3 player)

SBRF 031300Z 15015KT 9999 BKN030 28/20 Q1020

SBRF Flight Activity (Flightaware)

Listeners: 0 out of 1404 total

Gol Ops: 131.225

SBRF Ground (Archives)
Recife, Brazil

Feed Status: UP
Listen in your browser - HTML5 player(in browser, HTML5)
Click here to listen with your own player(launches your MP3 player)

SBRF 031300Z 15015KT 9999 BKN030 28/20 Q1020

SBRF Flight Activity (Flightaware)

Listeners: 1 out of 1404 total

Recife Ground: 121.850

SBRF LATAM Ops (Archives)
Recife, Brazil

Feed Status: UP
Listen in your browser - HTML5 player(in browser, HTML5)
Click here to listen with your own player(launches your MP3 player)

SBRF 031300Z 15015KT 9999 BKN030 28/20 Q1020

SBRF Flight Activity (Flightaware)

Listeners: 0 out of 1404 total

LATAM Ops: 130.500

SBRF Recife ACC (Archives)
Recife, Brazil

Feed Status: UP
Listen in your browser - HTML5 player(in browser, HTML5)
Click here to listen with your own player(launches your MP3 player)

SBRF 031300Z 15015KT 9999 BKN030 28/20 Q1020

SBRF Flight Activity (Flightaware)

Listeners: 2 out of 1404 total

Recife Center: 128.700
Recife Center: 133.650
Recife Center: 134.800

SBRF Tower (Archives)
Recife, Brazil

Feed Status: UP
Listen in your browser - HTML5 player(in browser, HTML5)
Click here to listen with your own player(launches your MP3 player)

SBRF 031300Z 15015KT 9999 BKN030 28/20 Q1020

SBRF Flight Activity (Flightaware)

Listeners: 6 out of 1404 total

Recife Tower: 125.250
Recife Tower: 118.350
Recife Tower: 118.900

SBRP Tower/Center (Archives)
Ribeirao Preto, Brazil

Feed Status: UP
Listen in your browser - HTML5 player(in browser, HTML5)
Click here to listen with your own player(launches your MP3 player)

SBRP 031300Z 10007KT CAVOK 20/08 Q1029

SBRP Flight Activity (Flightaware)

Listeners: 7 out of 1404 total

Leite Lopes Tower: 118.000
Pirassununga Center (North): 119.550

SBSL Twr/App/FIR (Archives)
Sao Luis, Brazil

Feed Status: UP
Listen in your browser - HTML5 player(in browser, HTML5)
Click here to listen with your own player(launches your MP3 player)

SBSL 031400Z 12007KT 9999 BKN020 30/24 Q1016

SBSL Flight Activity (Flightaware)

Listeners: 0 out of 1404 total

Amazonica Center: 133.700
Sao Luis Approach: 119.100
Sao Luis Tower: 118.900

SBSN Twr/App/ACC (Archives)
Santarem, Brazil

Feed Status: UP
Listen in your browser - HTML5 player(in browser, HTML5)
Click here to listen with your own player(launches your MP3 player)

SBSN 031400Z 12007KT CAVOK 31/24 Q1016

SBSN Flight Activity (Flightaware)

Listeners: 0 out of 1404 total

Brasilia Center/ACC: 123.650
Brasilia Center/ACC: 125.050
Santarem Approach: 119.300
Santarem Tower: 118.100

SBSR AFIS/App/Center (Archives)
Sao Jose do Rio Preto, Brazil

Feed Status: UP
Listen in your browser - HTML5 player(in browser, HTML5)
Click here to listen with your own player(launches your MP3 player)

SBSR 031300Z 06009KT CAVOK 21/06 Q1028

SBSR Flight Activity (Flightaware)

Listeners: 5 out of 1404 total

Academia Approach (North Sector): 119.750
Academia Approach (North Sector): 120.400
Brasilia Center: 135.150
Rio Preto Radio AFIS: 130.850

SBTE Twr/App (Archives)
Teresina, Brazil

Feed Status: UP
Listen in your browser - HTML5 player(in browser, HTML5)
Click here to listen with your own player(launches your MP3 player)

SBTE 031400Z 14010KT CAVOK 31/18 Q1017

SBTE Flight Activity (Flightaware)

Listeners: 1 out of 1404 total

Teresina Approach: 119.600
Teresina Tower: 118.800

SBRE Recife ACC (Archives)
Paulo Afonso, Brazil

Feed Status: UP
Listen in your browser - HTML5 player(in browser, HTML5)
Click here to listen with your own player(launches your MP3 player)

SBRE Flight Activity (Flightaware)

Listeners: 0 out of 1404 total

Recife Center (ACC): 125.400
Recife Center (ACC): 125.450
Recife Center (ACC): 126.850
Recife Center (ACC): 133.650
Recife Center (ACC): 134.500
Recife Center (ACC): 134.900

SBUF AFIS/Center (Archives)
Paulo Afonso, Brazil

Feed Status: UP
Listen in your browser - HTML5 player(in browser, HTML5)
Click here to listen with your own player(launches your MP3 player)

SBUF 031300Z 15010KT 9999 SCT017 25/18 Q1022

SBUF Flight Activity (Flightaware)

Listeners: 0 out of 1404 total

Paulo Afonso Radio: 125.850
Recife Center: 133.650
Recife Center: 134.500
Recife Center: 125.450

SBQV AFIS
Vitoria da Conquista, Brazil

Feed Status: DOWN
Offline since: 2020-08-03 01:27:05 UTC

Conquista AFIS: 130.850
Despacho Azul: 131.875
Despacho Passaredo: 132.000

SBVT Gnd/Twr/App (Archives)
Vitoria, Brazil

Feed Status: UP
Listen in your browser - HTML5 player(in browser, HTML5)
Click here to listen with your own player(launches your MP3 player)

SBVT 031300Z 21009KT 9999 FEW030 SCT050 23/16 Q1028

SBVT Flight Activity (Flightaware)

Listeners: 3 out of 1404 total

SBVT Approach: 119.850
SBVT Ground: 121.950
SBVT Tower: 118.100

SCEL Gnd/Twr/Radar (Archives)
Santiago, Chile

Feed Status: UP
Listen in your browser - HTML5 player(in browser, HTML5)
Click here to listen with your own player(launches your MP3 player)

SCEL 031400Z 20004KT 170V240 7000 HZ NSC 09/05 Q1020 NOSIG

SCEL Flight Activity (Flightaware)

Listeners: 7 out of 1404 total

Santiago Authorizations: 121.700
Santiago Control (Lat 3323S North): 128.100
Santiago Control (Lat 3323S South): 126.300
Santiago Ground (Primary): 122.200
Santiago Ground (Secondary): 122.500
Santiago Radar: 125.400
Santiago Radar: 135.400
Santiago Radar (Arrival, Primary): 129.700
Santiago Radar (Arrival, Secondary): 119.700
Santiago Radar (Arrival, Secondary): 123.800
Santiago Radar (Departure, Primary): 121.100
Santiago Radar (Departure, Secondary): 123.800
Santiago Radar (Information, Primary): 122.400
Santiago Radar (Information, Secondary): 120.800
Santiago Radar (Information, Secondary): 123.800
Santiago Tower (Primary): 118.100
Santiago Tower (Secondary): 118.350
SCTB Tobalaba Tower: 118.700

SEGU App/Dep/Info (Archives)
Guayaquil, Ecuador

Feed Status: UP
Listen in your browser - HTML5 player(in browser, HTML5)
Click here to listen with your own player(launches your MP3 player)

SEGU 031400Z 21011KT 9999 FEW016 25/18 Q1014 NOSIG RMK A2995

SEGU Flight Activity (Flightaware)

Listeners: 1 out of 1404 total

Guayaquil Approach: 120.700
Guayaquil Approach (Secondary): 119.300
Guayaquil Info: 126.900

SEGU Gnd/Twr (Archives)
Guayaquil, Ecuador

Feed Status: UP
Listen in your browser - HTML5 player(in browser, HTML5)
Click here to listen with your own player(launches your MP3 player)

SEGU 031400Z 21011KT 9999 FEW016 25/18 Q1014 NOSIG RMK A2995

SEGU Flight Activity (Flightaware)

Listeners: 0 out of 1404 total

Guayaquil Ground: 121.900
Guayaquil Ground (Secondary): 121.700
Guayaquil Tower: 118.300
Guayaquil Tower (Secondary): 118.900

SEGU Gnd/Twr/App (Archives)
Guayaquil, Ecuador

Feed Status: UP
Listen in your browser - HTML5 player(in browser, HTML5)
Click here to listen with your own player(launches your MP3 player)

SEGU 031400Z 21011KT 9999 FEW016 25/18 Q1014 NOSIG RMK A2995

SEGU Flight Activity (Flightaware)

Listeners: 0 out of 1404 total

Guayaquil Approach: 120.700
Guayaquil Ground: 121.900
Guayaquil Tower: 118.300

SEGU Guayaquil Center (Archives)
Guayaquil, Ecuador

Feed Status: UP
Listen in your browser - HTML5 player(in browser, HTML5)
Click here to listen with your own player(launches your MP3 player)

SEGU 031400Z 21011KT 9999 FEW016 25/18 Q1014 NOSIG RMK A2995

SEGU Flight Activity (Flightaware)

Listeners: 1 out of 1404 total

Guayaquil Center: 127.950
Guayaquil Center: 128.300
Guayaquil Center (Secondary): 128.000
Guayaquil Center (Secondary): 123.900

SEQM ATIS (Archives)
Quito, Ecuador

Feed Status: UP
Listen in your browser - HTML5 player(in browser, HTML5)
Click here to listen with your own player(launches your MP3 player)

SEQM 031400Z VRB02KT 9999 FEW033 BKN300 17/04 Q1028 NOSIG RMK A3036

SEQM Flight Activity (Flightaware)

Listeners: 0 out of 1404 total

Quito ATIS: 118.700

SEQM Gnd/Twr/App (Archives)
Quito, Ecuador

Feed Status: UP
Listen in your browser - HTML5 player(in browser, HTML5)
Click here to listen with your own player(launches your MP3 player)

SEQM 031400Z VRB02KT 9999 FEW033 BKN300 17/04 Q1028 NOSIG RMK A3036

SEQM Flight Activity (Flightaware)

Listeners: 1 out of 1404 total

Quito Approach/Departure: 119.700
Quito Approach/Departure: 121.200
Quito Ground: 121.900
Quito Tower: 118.100
Quito Tower (Secondary): 118.350

SEQM Tower (Archives)
Quito, Ecuador

Feed Status: UP
Listen in your browser - HTML5 player(in browser, HTML5)
Click here to listen with your own player(launches your MP3 player)

SEQM 031400Z VRB02KT 9999 FEW033 BKN300 17/04 Q1028 NOSIG RMK A3036

SEQM Flight Activity (Flightaware)

Listeners: 0 out of 1404 total

Quito Tower: 118.100
Quito Tower (Secondary): 118.350

SJOY CTAF (Archives)
Palmeira, Brazil

Feed Status: UP
Listen in your browser - HTML5 player(in browser, HTML5)
Click here to listen with your own player(launches your MP3 player)

METAR NOT AVAILABLE

SJOY Flight Activity (Flightaware)

Listeners: 0 out of 1404 total


SKBO Del/Gnd/Twr/App
Bogota, Colombia

Feed Status: DOWN
Offline since: 2020-08-01 00:53:23 UTC

SKBO 031400Z 15010KT 110V180 9999 FEW023 SCT080 18/04 A3043 NOSIG

Bogota Approach: 119.500
Bogota Clearance Delivery: 121.600
Bogota Departure (North): 121.300
Bogota Departure (South): 119.650
Bogota Ground (North): 121.800
Bogota Ground (South): 122.750
Bogota Information: 126.900
Bogota Tower (North): 118.100
Bogota Tower (South): 118.250
Guaymaral Ground: 121.700
Guaymaral Tower: 118.800

SKBQ Approach
Barranquilla, Colombia

Feed Status: DOWN
Offline since: 2020-08-03 12:59:06 UTC

SKBQ 031300Z 07005KT 9999 BKN015 28/26 A2986 NOSIG

Barranquilla Approach/Departure: 119.100

SKRG Gnd/Twr/App
Rionegro, Colombia

Feed Status: DOWN
Offline since: 2020-04-09 20:08:05 UTC

SKRG 031400Z 14004KT 9999 SCT015 BKN200 17/13 A3038 NOSIG

Jose Maria Cordova Ground: 121.900
Jose Maria Cordova Tower: 118.600
Medellin Approach (South): 121.100

SPJC Approach (Archives)
Lima, Peru

Feed Status: UP
Listen in your browser - HTML5 player(in browser, HTML5)
Click here to listen with your own player(launches your MP3 player)

SPJC 031400Z 29005KT 270V340 9999 OVC014 15/12 Q1017 NOSIG RMK PP000

SPJC Flight Activity (Flightaware)

Listeners: 2 out of 1404 total

Lima Approach: 119.700

SPJC Ground (Archives)
Lima, Peru

Feed Status: UP
Listen in your browser - HTML5 player(in browser, HTML5)
Click here to listen with your own player(launches your MP3 player)

SPJC 031400Z 29005KT 270V340 9999 OVC014 15/12 Q1017 NOSIG RMK PP000

SPJC Flight Activity (Flightaware)

Listeners: 1 out of 1404 total

Lima Ground: 121.900

SPJC Tower (Archives)
Lima, Peru

Feed Status: UP
Listen in your browser - HTML5 player(in browser, HTML5)
Click here to listen with your own player(launches your MP3 player)

SPJC 031400Z 29005KT 270V340 9999 OVC014 15/12 Q1017 NOSIG RMK PP000

SPJC Flight Activity (Flightaware)

Listeners: 2 out of 1404 total

Lima Tower: 118.100

SPST Tower (Archives)
Tarapoto, Peru

Feed Status: UP
Listen in your browser - HTML5 player(in browser, HTML5)
Click here to listen with your own player(launches your MP3 player)

SPST 031400Z 00000KT 9999 FEW020 SCT080 25/21 Q1020 RMK BIRD HAZARD RWY 17/35

SPST Flight Activity (Flightaware)

Listeners: 1 out of 1404 total

Tarapoto Tower: 118.400

SSBL Air to Air
Blumenau, Brazil

Feed Status: DOWN
Offline since: 2020-08-03 14:15:05 UTC

Air to Air: 123.450

SULS Tower (Archives)
Punta del Este, Uruguay

Feed Status: UP
Listen in your browser - HTML5 player(in browser, HTML5)
Click here to listen with your own player(launches your MP3 player)

SULS 031400Z 04006KT 0200 FG OVC002 12/11 Q1026

SULS Flight Activity (Flightaware)

Listeners: 1 out of 1404 total

Air to Air: 123.450
SULS A/G: 122.100
SULS Tower: 118.300

SUMU Twr/App
Montevideo, Uruguay

Feed Status: DOWN
Offline since: 2020-07-27 21:53:06 UTC

SUMU 031400Z 11011KT 8000 SCT003 13/12 Q1025 NOSIG

SUMU Approach: 119.200
SUMU Tower: 118.100

SUMU Twr/App/Radar (Archives)
Montevideo, Uruguay

Feed Status: UP
Listen in your browser - HTML5 player(in browser, HTML5)
Click here to listen with your own player(launches your MP3 player)

SUMU 031400Z 11011KT 8000 SCT003 13/12 Q1025 NOSIG

SUMU Flight Activity (Flightaware)

Listeners: 3 out of 1404 total

SUMU Approach: 120.200
SUMU Approach: 119.200
SUMU Info: 121.800
SUMU Informacion: 121.800
SUMU Radar Control: 128.500
SUMU Radar Control: 126.300
SUMU Radar Control: 128.000
SUMU Tower: 118.100

SUPE CTAF (Archives)
Punta del Este, Uruguay

Feed Status: UP
Listen in your browser - HTML5 player(in browser, HTML5)
Click here to listen with your own player(launches your MP3 player)

SULS 031400Z 04006KT 0200 FG OVC002 12/11 Q1026

SULS Flight Activity (Flightaware)

Listeners: 0 out of 1404 total

SUPE CTAF: 118.700

SUPU/SUPC Misc (Archives)
Paysandu, Uruguay

Feed Status: UP
Listen in your browser - HTML5 player(in browser, HTML5)
Click here to listen with your own player(launches your MP3 player)

SUPU 040900Z 10005KT 9999 FEW020TCU BKN070 FEW200 23/23 Q1010

SUPU Flight Activity (Flightaware)

Listeners: 0 out of 1404 total

Chalkling Tower: 118.700
Paysandu Tower: 118.200

SVBC Gnd/Twr/App
Barcelona, Venezuela

Feed Status: DOWN
Offline since: 2020-07-20 21:48:23 UTC

SVBC 181702Z AUTO 00000KT NCD 0/// Q////

Barcelona Approach: 121.100
Barcelona Ground: 121.900
Barcelona Tower: 118.700
Emergency/Guard: 121.500
SAR: 123.100

SVPR Twr/App/FIR
Ciudad Guayana, Venezuela

Feed Status: DOWN
Offline since: 2020-08-01 14:04:40 UTC

Emergency/Guard: 121.500
FIR 6: 126.000
Guayana Approach (Primary): 119.500
Guayana Approach (Secondary): 120.300
Guayana Tower (Primary): 118.000
Guayana Tower (Secondary): 123.500
SMC: 121.900

SVVA Gnd/Twr/App (Archives)
Valencia, Venezuela

Feed Status: UP
Listen in your browser - HTML5 player(in browser, HTML5)
Click here to listen with your own player(launches your MP3 player)

SVVA 021900Z /////KT 9999 BKN016 28/20 Q1013

SVVA Flight Activity (Flightaware)

Listeners: 0 out of 1404 total

Libertador Approach: 119.300
Valencia Ground: 121.900
Valencia Tower: 121.200

TNCA Twr/Apron/FIR (Archives)
Oranjestad, Aruba

Feed Status: UP
Listen in your browser - HTML5 player(in browser, HTML5)
Click here to listen with your own player(launches your MP3 player)

TNCA 031400Z 10020KT 9999 FEW019 31/25 Q1012 NOSIG

TNCA Flight Activity (Flightaware)

Listeners: 0 out of 1404 total

Beatrix Ground (Apron): 121.600
Beatrix Tower: 120.900
Beatrix Tower (secondary): 118.000
Curacao Control: 127.100
Emergency/Guard: 121.500
Search/Rescue: 123.100

TNCB ATIS (Archives)
Kralendijk, Bonaire

Feed Status: UP
Listen in your browser - HTML5 player(in browser, HTML5)
Click here to listen with your own player(launches your MP3 player)

TNCB 031255Z AUTO 10018KT 070V140 9999 NCD 31/25 Q1013

TNCB Flight Activity (Flightaware)

Listeners: 0 out of 1404 total

Bonaire ATIS: 132.300

TNCB Tower (Archives)
Kralendijk, Bonaire

Feed Status: UP
Listen in your browser - HTML5 player(in browser, HTML5)
Click here to listen with your own player(launches your MP3 player)

TNCB 031255Z AUTO 10018KT 070V140 9999 NCD 31/25 Q1013

TNCB Flight Activity (Flightaware)

Listeners: 1 out of 1404 total

Bonaire Tower: 118.700

TNCC Curacao Control (Archives)
Willemstad, Curacao

Feed Status: UP
Listen in your browser - HTML5 player(in browser, HTML5)
Click here to listen with your own player(launches your MP3 player)

TNCC 031300Z 12015KT 9999 FEW017 31/25 Q1013 NOSIG=

TNCC Flight Activity (Flightaware)

Listeners: 0 out of 1404 total

Curacao Control: 124.100
Curacao Control: 127.100

TNCC Tower/Radar (Archives)
Willemstad, Curacao

Feed Status: UP
Listen in your browser - HTML5 player(in browser, HTML5)
Click here to listen with your own player(launches your MP3 player)

TNCC 031300Z 12015KT 9999 FEW017 31/25 Q1013 NOSIG=

TNCC Flight Activity (Flightaware)

Listeners: 0 out of 1404 total

Hato Radar: 119.600
Hato Tower: 118.300

TNCC Twr/Radar/Control (Archives)
Willemstad, Curacao

Feed Status: UP
Listen in your browser - HTML5 player(in browser, HTML5)
Click here to listen with your own player(launches your MP3 player)

TNCC 031300Z 12015KT 9999 FEW017 31/25 Q1013 NOSIG=

TNCC Flight Activity (Flightaware)

Listeners: 0 out of 1404 total

Curacao Control: 127.100
Hato Radar: 119.600
Hato Tower: 118.300

TNCE Info (Archives)
Oranjestad, Sint Eustatius

Feed Status: UP
Listen in your browser - HTML5 player(in browser, HTML5)
Click here to listen with your own player(launches your MP3 player)

TNCE 031255Z AUTO 09011KT 050V130 //// // ///////// 30/25 Q1017 RE//

TNCE Flight Activity (Flightaware)

Listeners: 0 out of 1404 total

Statia Info: 118.100

TTCP Gnd/Twr/App (Archives)
Scarborough, Trinidad and Tobago

Feed Status: UP
Listen in your browser - HTML5 player(in browser, HTML5)
Click here to listen with your own player(launches your MP3 player)

TTCP 031300Z 14009KT 9999 SCT018 31/26 Q1016 NOSIG

TTCP Flight Activity (Flightaware)

Listeners: 0 out of 1404 total

Piarco Approach: 119.000
Robinson Ground: 121.700
Robinson Tower: 118.400

TTPP Apron/Gnd/Twr (Archives)
Port of Spain, Trinidad and Tobago

Feed Status: UP
Listen in your browser - HTML5 player(in browser, HTML5)
Click here to listen with your own player(launches your MP3 player)

TTPP 031300Z 12005KT 9999 VCSH FEW012CB SCT018 27/25 Q1017 NOSIG RMK CB NE SE SSE WNW

TTPP Flight Activity (Flightaware)

Listeners: 0 out of 1404 total

Piarco Apron: 121.750
Piarco Ground: 121.900
Piarco Tower: 118.100

TTPP Piarco Approach (Archives)
Port of Spain, Trinidad and Tobago

Feed Status: UP
Listen in your browser - HTML5 player(in browser, HTML5)
Click here to listen with your own player(launches your MP3 player)

TTPP 031300Z 12005KT 9999 VCSH FEW012CB SCT018 27/25 Q1017 NOSIG RMK CB NE SE SSE WNW

TTPP Flight Activity (Flightaware)

Listeners: 0 out of 1404 total

Piarco Approach: 119.550
Piarco Approach: 119.000
Piarco Approach (backup): 124.000

TTPP Piarco Center (Archives)
Port of Spain, Trinidad and Tobago

Feed Status: UP
Listen in your browser - HTML5 player(in browser, HTML5)
Click here to listen with your own player(launches your MP3 player)

TTPP 031300Z 12005KT 9999 VCSH FEW012CB SCT018 27/25 Q1017 NOSIG RMK CB NE SE SSE WNW

TTPP Flight Activity (Flightaware)

Listeners: 1 out of 1404 total

Piarco Center: 123.700
Piarco Center (Oceanic): 126.500
Piarco Center (South Sector): 125.400
Piarco Center Oceanic (Backup): 133.100